Simultaneous Nadir Overpasses (SNOs) Predictions

Prediction of SNOs between NOAA-19 and TERRA Satellite Orbit:

Table of predicted SNOs for the next 14.0 days since TLE Epoch: 4/23/2016
Index Date (NOAA-19) Time (NOAA-19) Lat,Lon (NOAA-19) SZA (NOAA-19 ) Date (TERRA) Time (TERRA) Lat,Lon (TERRA) SZA (TERRA ) Distance(km) Time Diff (sec)
1 04/24/2016 22:11:02 -73.51, 33.86 119.68 04/24/2016 22:11:15 -73.51, 33.78 119.68 2.40 13
2 04/24/2016 23:01:55 73.31,-158.41 60.13 04/24/2016 23:00:43 73.37,-158.86 60.16 15.93 72
3 04/27/2016 02:54:18 -74.04, -38.21 119.89 04/27/2016 02:55:27 -73.95, -36.35 119.91 58.15 69
4 04/27/2016 03:45:04 73.53, 130.36 59.63 04/27/2016 03:45:01 73.50, 130.32 59.60 3.28 3
5 04/29/2016 08:28:10 73.60, 59.46 59.01 04/29/2016 08:29:19 73.62, 59.49 59.04 2.53 69
6 04/29/2016 09:19:14 -73.52,-133.13 121.07 04/29/2016 09:18:49 -73.50,-133.12 121.10 1.78 25
7 05/01/2016 14:02:20 -73.59, 155.99 121.67 05/01/2016 14:03:08 -73.57, 155.93 121.69 3.00 48
8 05/01/2016 14:53:15 73.52, -36.58 58.26 05/01/2016 14:52:34 73.53, -36.50 58.26 2.70 41
9 05/03/2016 19:36:21 73.59,-107.48 57.68 05/03/2016 19:36:53 73.59,-107.47 57.68 0.97 32
10 05/03/2016 20:27:25 -73.51, 59.95 122.41 05/03/2016 20:26:22 -73.53, 60.04 122.40 3.42 63
11 05/06/2016 01:10:31 -73.59, -10.96 122.96 05/06/2016 01:10:41 -73.58, -10.94 122.97 1.68 10




NCC Satellite Simultaneous Nadir Overpasses (SNOs) Prediction Service
